Home > Weather > Hemer > Past weeks

Flag for Germany Past Weather in Hemer, North Rhine-Westphalia, Germany — Yesterday and Last 2 Weeks

Now
64 °F

Scattered clouds.


Feels Like: 64 °F
Forecast: 48 / 65 °F
Wind: 5 mph from West

Location: Dortmund / Wickede

Current Time: Jul 31, 2016 at 11:49:27 AM

Latest Report: Jul 31, 2016 at 10:50 AM


Visibility: N/A

Pressure: 29.92 "Hg

Humidity: 68%

Dew Point: 54 °F

Location of HemerLocation

Past Weather in Hemer — Graph

°F

Hemer Temperature Yesterday

Maximum temperature yesterday: 73 °F (at 5:20 PM)
Minimum temperature yesterday: 61 °F (at 5:20 AM)
Average temperature yesterday: 67 °F

High & Low Weather Summary for the Past Weeks

 TemperatureHumidityPressure
High91 °F (Jul 20, 3:20 PM)88% (Jul 18, 5:20 AM)30.27 "Hg (Jul 18, 5:20 AM)
Low55 °F (Jul 18, 5:50 AM)20% (Jul 20, 5:20 PM)29.86 "Hg (Jul 20, 6:20 PM)
Average71 °F62%30.05 "Hg
* Reported Jul 16 10:20 AM — Jul 31 10:20 AM, Hemer, Weather by CustomWeather, © 2016

Note: Actual official high and low records may vary slightly from our data, if they occured in-between our weather recording intervals... More about our weather records

Advertising

Hemer Weather History for the Previous 24 Hours

Scroll right to see more
 ConditionsComfort  
Time TempWeatherWind HumidityBarometerVisibility
10:20 AM
Sun, Jul 31
64 °FScattered clouds.5 mph68%29.92 "HgN/A
9:50 AM64 °FScattered clouds.7 mph73%29.92 "Hg5 mi
9:20 AM63 °FScattered clouds.6 mph83%29.92 "Hg4 mi
8:50 AM63 °FScattered clouds.5 mph77%29.92 "Hg5 mi
8:20 AM61 °FScattered clouds.6 mph83%29.92 "Hg5 mi
7:50 AM61 °FPartly sunny.6 mph83%29.92 "Hg5 mi
7:20 AM61 °FPartly sunny.7 mph83%29.89 "Hg6 mi
6:50 AM61 °FPassing clouds.6 mph83%29.89 "HgN/A
6:20 AM59 °FPassing clouds.6 mph88%29.89 "Hg5 mi
5:50 AM59 °FClear.3 mph88%29.89 "Hg6 mi
5:20 AM59 °FClear.3 mph88%29.89 "Hg10 mi
9:50 PM
Sat, Jul 30
63 °FPartly sunny.1 mph77%29.92 "HgN/A
9:20 PM63 °FScattered clouds.2 mph77%29.92 "HgN/A
8:50 PM64 °FPartly sunny.5 mph73%29.92 "HgN/A
8:20 PM66 °FPartly sunny.5 mph68%29.92 "HgN/A
7:50 PM70 °FPartly sunny.7 mph57%29.92 "HgN/A
7:20 PM70 °FSunny.9 mph53%29.89 "Hg10 mi
6:50 PM70 °FPartly sunny.10 mph53%29.92 "HgN/A
6:20 PM72 °FPassing clouds.9 mph50%29.92 "HgN/A
5:50 PM72 °FScattered clouds.7 mph50%29.92 "HgN/A
5:20 PM73 °FScattered clouds.6 mph44%29.92 "HgN/A
4:50 PM70 °FScattered clouds.5 mph53%29.92 "HgN/A
4:20 PM72 °FScattered clouds.7 mph50%29.92 "HgN/A
3:50 PM72 °FPassing clouds.6 mph50%29.92 "HgN/A
3:20 PM70 °FPartly sunny.5 mph53%29.92 "HgN/A
2:50 PM70 °FBroken clouds.6 mph57%29.92 "HgN/A
2:20 PM70 °FPartly sunny.7 mph53%29.92 "HgN/A
1:50 PM72 °FPartly sunny.9 mph53%29.92 "HgN/A
1:20 PM70 °FPartly sunny.8 mph57%29.92 "HgN/A
12:50 PM70 °FPartly sunny.10 mph53%29.92 "HgN/A
12:20 PM68 °FPartly sunny.10 mph56%29.92 "HgN/A
11:50 AM68 °FPartly sunny.12 mph60%29.92 "HgN/A
11:20 AM68 °FPartly sunny.15 mph56%29.92 "HgN/A
Weather by CustomWeather, © 2016

See weather overviewHow to use our weather pages